User: anonymous   Login
Location: Santa Barbara
(34.4500°N, 119.7700°W)
Time: 20:30:24
(UTC-07:00)
Language:

Cosmos 1626 Rocket - Orbit

View from above orbital plane
View from above orbital plane
View from above satellite
View from above satellite

Ground track
Ground track

The orbit data is extracted from the following two-line orbital elements,

1 15495U 85009B   17086.91408640 +.00000105 +00000-0 +97545-5 0  9991
2 15495 082.5218 263.5897 0018878 235.9496 123.9928 14.83758231716822
Epoch (UTC): 27 March 2017 21:56:17
Eccentricity: 0.0018878
inclination: 82.5218°
perigee height: 604 km
apogee height: 630 km
right ascension of ascending node: 263.5897°
argument of perigee: 235.9496°
revolutions per day: 14.83758231
mean anomaly at epoch: 123.9928°
orbit number at epoch: 71682

The dashed part of the orbit path shows where the satellite is in the earth's shadow,  

DLR